Flag for Canada Weather past 2 weeks in Regina, Saskatchewan, Canada

Now
39 °F

Mostly cloudy.


Feels Like: 28 °F
Forecast: 24 / 37 °F
Wind: 26 mph from West

Location: Regina Weather Station

Current Time: Apr 1, 2015 at 11:03:25 PM

Latest Report: Apr 1, 2015 at 10:00 PM


Visibility: 15 mi

Pressure: 29.55 "Hg

Humidity: 65%

Dew point: 28 °F

Location of ReginaLocation

Historic Weather in Regina — Graph

°F

Regina temperature yesterday

Maximum temperature yesterday: 61 °F (at 2:00 PM)
Minimum temperature yesterday: 32 °F (at 2:00 AM)
Average temperature yesterday: 47 °F

Past Weeks' High & Low Weather Summary

 TemperatureHumidityPressure
High61 °F (Mar 31, 2:00 PM)100% (Mar 19, 12:00 AM)30.31 "Hg (Mar 19, 12:00 AM)
Low14 °F (Mar 25, 6:00 AM)41% (Mar 29, 4:00 PM)29.48 "Hg (Apr 1, 4:00 AM)
Average34 °F82%30.02 "Hg
* Reported Mar 17 10:00 PM — Apr 1 10:00 PM, Regina, Weather by CustomWeather, © 2015

Note: Actual official high and low records may vary slightly from our data, if they occured in-between our weather recording intervals... More about our weather records

Advertising

Regina weather history for previous 24 hours

 ConditionsComfort  
Time TempWeatherWind HumidityBarometerVisibility
10:00 PM
Wed, Apr 1
39 °FMostly cloudy.26 mph65%29.55 "Hg15 mi
9:00 PM39 °FMostly cloudy.15 mph65%29.58 "Hg15 mi
8:00 PM41 °FPartly cloudy.14 mph66%29.59 "Hg15 mi
7:00 PM43 °FPassing clouds.13 mph57%29.59 "Hg15 mi
6:00 PM46 °FScattered clouds.17 mph50%29.59 "Hg15 mi
5:00 PM48 °FPartly sunny.26 mph43%29.58 "Hg15 mi
4:00 PM48 °FPartly sunny.24 mph46%29.58 "Hg15 mi
3:00 PM48 °FBroken clouds.23 mph50%29.59 "Hg15 mi
2:00 PM48 °FPartly sunny.28 mph54%29.58 "Hg15 mi
1:00 PM48 °FBroken clouds.32 mph54%29.58 "Hg15 mi
12:00 PM46 °FPartly sunny.28 mph62%29.58 "Hg15 mi
11:00 AM45 °FPartly sunny.25 mph71%29.59 "Hg15 mi
10:00 AM41 °FOvercast.25 mph81%29.58 "Hg15 mi
9:00 AM43 °FPartly sunny.22 mph81%29.56 "Hg15 mi
8:00 AM41 °FPartly sunny.16 mph87%29.55 "Hg15 mi
7:00 AM41 °FPartly sunny.18 mph93%29.52 "Hg15 mi
6:00 AM41 °FPassing clouds.13 mph93%29.51 "Hg15 mi
5:00 AM45 °FOvercast.10 mph93%29.50 "Hg15 mi
4:00 AM45 °FLight rain. Overcast.No wind93%29.48 "Hg12 mi
3:00 AM46 °FLight rain. Overcast.13 mph87%29.52 "Hg6 mi
2:00 AM48 °FLight rain. Overcast.16 mph82%29.51 "Hg12 mi
1:00 AM48 °FLight rain. Overcast.2 mph76%29.49 "Hg15 mi
12:00 AM46 °FOvercast.14 mph82%29.49 "Hg15 mi
11:00 PM
Tue, Mar 31
46 °FOvercast.14 mph82%29.52 "Hg15 mi
Weather by CustomWeather, © 2015

See weather overviewHow to use our weather pages